Find Starlink 33905

NORAD ID: 63881 Int'l Des: 2025-094 Owner: SPXS Country: US Constellation: starlink operational
LEOCIRCULAR

リアルタイム位置

3D地球を読み込み中...

Starlink 33905について

説明を読み込み中...

次回通過

Passes for default location (London). Set your location on the main map for personalized predictions.

高度履歴

Loading altitude history...

軌道要素

1 63881U 25094T 26104.91668981 .00054635 00000-0 45544-2 0 9994
2 63881 70.0007 142.9666 0003792 270.3067 82.4921 14.98300570 5808
Epoch: Apr 14, 2026 • Age: 11 hours

現在のステータス

高度 585.7 km
速度 7.57 km/s
衛星直下点 -42.16°S, 7.72°E
打ち上げ日 May 10, 2025
運用期間 0.9 years
タイプ internet

技術仕様

分類 Payload
質量 575.00 kg
乾燥質量 530.00 kg
総質量 575.00 kg
長さ 0.30 m
直径 4.10 m
スパン 29.00 m
形状 Box + pan
製造者 SPXS
バスタイプ Starlink V2MO
フェーズステータス In Orbit
所有者/国 SPXS/US

Most Searched